Погода в Ла-Тюке

Канада     47°26′30″N   72°47′09″W
темп.,
°C
ветер,
м/с
пор.,
м/с
влажн.,
%
обл.,
%
осадки,
мм/ч
давл.,
гПа
погр.,
м
6 мая, чт
чт623:00+5сз51096100 0.4 1006594
02:00+3сз51198100 1.4 1007804
05:00+2сз51193100 0.3 1009846
08:00+2сз5108472 0.3 1011865
11:00+3сз5869100 0.1 10121227
14:00+5сз585297 0.1 10121608
17:00+7ссз584099 0.0 10122171
20:00+3ссз37585 0.0 1014172
7 мая, пт
пт723:00−1ссз11760 0.0 101510
02:00−2в00835 0.0 101610
05:00−2ююв118599 0.0 101610
08:00+4в00565 0.0 1017371
11:00+11ссз01375 0.0 10151637
14:00+13всв1132100 0.0 10132433
17:00+12в2232100 0.0 10122278
20:00+7всв2257100 0.0 101311
8 мая, сб
сб823:00+4в217286 0.0 101419
02:00+2в2174100 0.0 101323
05:00+1св2178100 0.0 101319
08:00+6ссв2262100 0.0 1013378
11:00+11св3442100 0.0 10111588
14:00+13ссв5536100 0.0 10081967
17:00+11св4641100 0.0 10091756
20:00+7св3860100 0.0 1009459
9 мая, вс
вс923:00+4ссв2374100 0.0 101071
02:00+2сз1185100 0.0 100919
05:00+1сз1188100 0.0 100920
08:00+6сз2662100 0.0 1008504
11:00+11сз464390 0.0 10071964
14:00+12зсз674675 0.0 10061829
17:00+11зсз675327 0.0 10061452
20:00+6зсз597253 0.1 1008759
10 мая, пн
пн1023:00+3сз388639 0.0 1009410
02:00+2з1388100 0.0 1009136
05:00+3зсз148283 0.0 1009174
08:00+5сз2380100 0.0 1009548
11:00+6сз2275100 0.1 1009785
14:00+9з2357100 0.3 10071297
17:00+11зсз235160 0.3 10061534
20:00+5сз2787100 1.5 1006153